Miscellaneous Local Product
Issued by NWS North Platte, NE

Home | Current Version | Previous Version | Text Only | Print | Product List | Glossary On
Versions: 1 2 3 4 5 6 7 8 9 10 11 12 13 14 15 16 17 18 19 20 21 22 23 24 25 26 27 28 29 30 31 32 33 34 35 36 37 38 39 40 41 42 43 44 45 46 47 48 49 50
000
AXUS43 KLBF 211110
MISLBF


WESTERN AND NORTH CENTRAL NEBRASKA HOURLY WEATHER ROUNDUP
NATIONAL WEATHER SERVICE NORTH PLATTE NE
600 AM CDT SUN SEP 21 2014

***STATIONS NOT REPORTING VARIABLES SUCH AS SKY/WEATHER OR
PRESSURE ARE PROVIDED BY THE NEBRASKA DEPARTMENT OF
ROADS...RAWS...AND APRS NETWORKS...AND ARE NOT UNDER
NATIONAL WEATHER SERVICE QUALITY CONTROL***

...OBSERVATIONS IN AND NEAR THE EASTERN PANHANDLE OF NEBRASKA...

CITY           SKY/WX    TMP DP  RH WIND       PRES   REMARKS
PINE RIDGE     CLEAR     36  34  92 CALM      30.33S
CHADRON        CLEAR     40  37  89 SW5       30.33F
ALLIANCE       MOCLDY    44  40  85 NW6       30.34S
SIDNEY         MOCLDY    54  45  71 NW6       30.36R
WHITECLAY        N/A     35  31  87 SE5         N/A  WCI  30
RUSHVILLE        N/A     36  34  92 NE10        N/A  WCI  28
CRESCENT LAKE    N/A     48  41  77 N5          N/A
LISCO            N/A     52  45  77 CALM        N/A
BIG SPRINGS      N/A     53  49  88 CALM        N/A
$$

...OBSERVATIONS IN NORTH CENTRAL NEBRASKA...

CITY           SKY/WX    TMP DP  RH WIND       PRES   REMARKS
VALENTINE      CLEAR     46  39  76 NW9       30.28R
THEDFORD       CLEAR     46  40  79 W3        30.30R
AINSWORTH      CLEAR     46  38  75 W7        30.27R
O`NEILL        CLEAR     48  43  80 W8        30.23R
ORD            CLEAR     45  42  89 NW7       30.22R
BROKEN BOW     CLEAR     49  40  71 N8        30.26R
SPRINGVIEW       N/A     44  39  84 W3          N/A
ROSE             N/A     48  41  76 W7          N/A
NEWPORT          N/A     42  39  89 W7          N/A
COMSTOCK         N/A     52  41  67 CALM        N/A
$$

...OBSERVATIONS IN SOUTHWEST NEBRASKA AND FAR NORTHEAST COLORADO...

CITY           SKY/WX    TMP DP  RH WIND       PRES   REMARKS
WRAY           FAIR      48  45  88 W3        30.32R
HOLYOKE        FAIR      54  45  71 N5        30.32S
IMPERIAL       PTCLDY    52  44  74 NW3       30.30R
OGALLALA       CLOUDY    52  49  90 CALM      30.31S
NORTH PLATTE   CLEAR     42  40  92 NW3       30.29R
MCCOOK         CLEAR     49  46  90 W3        30.27R
LEXINGTON      CLEAR     47  45  90 NW6       30.25S
PAXTON           N/A     54  46  74 NW3         N/A
SUTHERLAND       N/A     46  40  78 W3          N/A
BRADY            N/A     46  41  83 CALM        N/A
GOTHENBURG       N/A     49  41  73 W5          N/A
CALLAWAY         N/A     51  43  73 NW6         N/A
$$

...SOME WEATHER OBSERVATIONS FROM AROUND THE REGION...

CITY           SKY/WX    TMP DP  RH WIND       PRES   REMARKS
DENVER         CLOUDY    60  43  53 SE9       30.34S
LARAMIE        CLEAR     48  36  63 SE10      30.41F
CHEYENNE       CLOUDY    55  38  52 S5        30.40F
SCOTTSBLUFF    MOCLDY    49  43  80 W3        30.35S
RAPID CITY     CLEAR     47  36  65 NW10      30.32S
PIERRE         CLEAR     49  42  77 W9        30.23R
WINNER         FAIR      48  38  68 W8        30.25R
SIOUX FALLS    CLEAR     50  43  77 W10       30.13R
OMAHA          CLEAR     56  48  74 W7        30.12R
GRAND ISLAND   CLEAR     49  44  83 W6        30.22R
KANSAS CITY    CLEAR     60  51  72 NW3       30.10R
WICHITA        PTCLDY    70  57  63 NE14      30.11R
HAYS           PTCLDY    57  45  62 N9        30.21R
LIBERAL        CLEAR     70  59  68 NE16G22   30.18R
GOODLAND       CLEAR     51  45  79 N3        30.30S
$$



USA.gov is the U.S. government's official web portal to all federal, state and local government web resources and services.